User: anonymous   Login
Location: Apeadero de Los Molinos-Guadarrama
(40.7091°N, 4.0689°W)
Time: 05:33:15
(UTC+00:00)
Language:

Landsat 7 - Orbit

View from above orbital plane
View from above orbital plane
View from above satellite
View from above satellite

Ground track
Ground track

The orbit data is extracted from the following two-line orbital elements,

1 25682U 99020A   21210.67145263  .00000055  00000-0  21869-4 0  9993
2 25682  98.0283 266.0345 0001705  75.2266 284.9121 14.57205163185546
Epoch (UTC): 29 July 2021 16:06:53
Eccentricity: 0.0001705
inclination: 98.0283°
perigee height: 701 km
apogee height: 703 km
right ascension of ascending node: 266.0345°
argument of perigee: 75.2266°
revolutions per day: 14.57205163
mean anomaly at epoch: 284.9121°
orbit number at epoch: 18554

The dashed part of the orbit path shows where the satellite is in the earth's shadow,  

DLR